Regional Weather Roundup
Issued by NWS

Home | Current Version | Previous Version | Graphics & Text | Print | Product List | Glossary Off
Versions: 1 2 3 4 5 6 7 8 9 10 11 12 13 14 15 16 17 18 19 20 21 22 23 24 25 26 27 28 29 30 31 32 33 34 35 36 37 38 39 40 41 42 43 44 45 46 47 48 49 50

000
ASUS43 KTOP 260659
RWRKS

WEATHER ROUNDUP FOR KANSAS
NATIONAL WEATHER SERVICE GOODLAND KS
200 AM CDT SUN MAR 26 2017

NOTE:  "FAIR" INDICATES FEW OR NO CLOUDS BELOW 12,000 FEET WITH NO
SIGNIFICANT WEATHER AND/OR OBSTRUCTIONS TO VISIBILITY.

KSZ001>006-013>018-027>032-041>047-260800-
NORTHWEST KANSAS

CITY           SKY/WX    TMP DP  RH WIND       PRES   REMARKS
GOODLAND       CLOUDY    40  39  97 S10       29.85F WCI  33
HAYS             N/A     43  39  86 SE7       29.91R
HILL CITY      CLOUDY    40  40 100 E3        29.91S
RUSSELL        CLOUDY    41  39  93 CALM      29.90R
$$

KSZ061>065-074>080-084>089-260800-
SOUTHWEST KANSAS

CITY           SKY/WX    TMP DP  RH WIND       PRES   REMARKS
DODGE CITY     PTCLDY    36  35  96 SE7       29.87F
ELKHART          N/A     40  28  62 SE14        N/A  WCI  32
GARDEN CITY    CLEAR     39  36  89 SE7       29.86F
GREAT BEND     CLOUDY    42  39  89 SE5       29.92R
LIBERAL        CLEAR     45  36  70 E9        29.86F
$$

KSZ066>073-081>083-090>101-260800-
SOUTHEAST KANSAS

CITY           SKY/WX    TMP DP  RH WIND       PRES   REMARKS
CHANUTE        CLOUDY    47  44  90 W8        29.90F
COFFEYVILLE    CLOUDY    47  43  86 CALM      29.91S
HUTCHINSON     CLOUDY    43  40  89 CALM      29.92R
MEDICINE LODGE   N/A     38  37  97 CALM      29.92R
NEWTON         CLOUDY    42  41  96 NW3       29.92R FOG
PARSONS        CLOUDY    46  45  96 W3        29.91F
WICHITA INTL   CLOUDY    43  43 100 NW3       29.91S FOG
WICHITA JABRA  CLOUDY    43  42  97 CALM      29.91S FOG
WINFIELD       CLOUDY    46  41  82 CALM      29.93S
$$

KSZ007>012-019>026-033>040-048>060-102>105-260800-
NORTHEAST KANSAS

CITY           SKY/WX    TMP DP  RH WIND       PRES   REMARKS
CONCORDIA      CLOUDY    40  40 100 NE7       29.90S FOG
EMPORIA        CLOUDY    44  43  96 CALM      29.89S
LAWRENCE       CLOUDY    44  42  93 NW3       29.89F
MANHATTAN      CLOUDY    44  41  89 CALM      29.90S
OLATHE IND     CLOUDY    44  42  93 NW8       29.88F
OLATHE EXE     CLOUDY    43  43 100 NW7       29.87S
SALINA         CLOUDY    44  42  93 NW5       29.93R FOG
TOPEKA BILLARD CLOUDY    44  43  96 N3        29.89F
TOPEKA FORBES  CLOUDY    45  42  89 N3        29.88F
$$




USA.gov is the U.S. government's official web portal to all federal, state and local government web resources and services.